Location: Hamburg
(53.5500°N, 10.0000°E)
Time: 03:27:17
(UTC+02:00)

A-11 Canister half - All Passes

Search period start: 21 April 2015 00:00
Search period end: 01 May 2015 00:00
Orbit: 1527 x 1682 km, 47.3° (Epoch: 18 April)

Date Brightness Start Highest point End Pass type
(mag) Time Alt. Az. Time Alt. Az. Time Alt. Az.
21 Apr - 09:38:48 10° S 09:45:43 23° SE 09:53:02 10° E daylight
21 Apr - 11:39:44 10° SW 11:49:07 48° SSE 11:58:40 10° E daylight
21 Apr - 13:43:31 10° WSW 13:53:25 62° S 14:03:21 10° ESE daylight
21 Apr - 15:48:09 10° W 15:57:45 49° SSW 16:07:14 10° SE daylight
21 Apr - 17:53:40 10° W 18:01:13 24° SW 18:08:26 10° S daylight
22 Apr - 09:17:34 10° S 09:24:15 21° SE 09:31:21 10° E daylight
22 Apr - 11:18:16 10° SW 11:27:36 47° SSE 11:37:06 10° E daylight
22 Apr - 13:21:58 10° WSW 13:31:52 62° S 13:41:48 10° ESE daylight
22 Apr - 15:26:35 10° W 15:36:13 50° SSW 15:45:46 10° SE daylight
22 Apr - 17:32:00 10° W 17:39:44 25° SW 17:47:08 10° S daylight
23 Apr - 08:56:21 10° S 09:02:46 20° SE 09:09:39 10° E daylight
23 Apr - 10:56:49 10° SW 11:06:04 46° SSE 11:15:32 10° E daylight
23 Apr - 13:00:26 10° WSW 13:10:18 62° S 13:20:15 10° E daylight
23 Apr - 15:05:01 10° W 15:14:41 51° SSW 15:24:16 10° SE daylight
23 Apr - 17:10:22 10° W 17:18:15 26° SW 17:25:51 10° S daylight
24 Apr - 08:35:09 10° S 08:41:18 19° SE 08:47:56 10° E daylight
24 Apr - 10:35:21 10° SW 10:44:32 45° SSE 10:53:56 10° E daylight
24 Apr - 12:38:54 10° WSW 12:48:45 62° S 12:58:41 10° E daylight
24 Apr - 14:43:28 10° W 14:53:08 52° SSW 15:02:47 10° SE daylight
24 Apr - 16:48:43 10° W 16:56:46 27° SW 17:04:32 10° S daylight
25 Apr - 08:13:59 10° SSE 08:19:51 18° SE 08:26:11 10° E daylight
25 Apr - 10:13:55 10° SW 10:23:01 43° SSE 10:32:22 10° E daylight
25 Apr - 12:17:23 10° WSW 12:27:11 62° S 12:37:08 10° E daylight
25 Apr - 14:21:54 10° W 14:31:37 53° SSW 14:41:17 10° SE daylight
25 Apr - 16:27:06 10° W 16:35:17 28° SW 16:43:13 10° SSE daylight
26 Apr - 07:52:50 10° SSE 07:58:23 17° SE 08:04:26 10° E daylight
26 Apr - 09:52:29 10° SW 10:01:30 42° SSE 10:10:47 10° E daylight
26 Apr - 11:55:51 10° WSW 12:05:39 61° S 12:15:35 10° E daylight
26 Apr - 14:00:21 10° W 14:10:04 54° SSW 14:19:46 10° SE daylight
26 Apr - 16:05:28 10° W 16:13:47 29° SW 16:21:52 10° SSE daylight
27 Apr - 07:31:44 10° SSE 07:36:55 16° SE 07:42:38 10° E daylight
27 Apr - 09:31:03 10° SW 09:39:59 41° SSE 09:49:12 10° E daylight
27 Apr - 11:34:20 10° WSW 11:44:05 61° S 11:54:01 10° E daylight
27 Apr - 13:38:47 10° W 13:48:31 55° SSW 13:58:16 10° SE daylight
27 Apr - 15:43:52 10° W 15:52:17 30° SW 16:00:30 10° SSE daylight
28 Apr - 07:10:41 10° SSE 07:15:28 15° SE 07:20:49 10° E daylight
28 Apr - 09:09:38 10° SSW 09:18:28 40° SSE 09:27:37 10° E daylight
28 Apr - 11:12:49 10° WSW 11:22:32 60° S 11:32:28 10° E daylight
28 Apr - 13:17:14 10° W 13:26:59 56° SSW 13:36:45 10° ESE daylight
28 Apr - 15:22:15 10° W 15:30:47 32° SW 15:39:08 10° SSE daylight
29 Apr - 06:49:40 10° SSE 06:54:01 14° SE 06:58:57 10° E daylight
29 Apr - 08:48:14 10° SSW 08:56:58 39° SSE 09:06:01 10° E daylight
29 Apr - 10:51:18 10° WSW 11:01:00 60° S 11:10:54 10° E daylight
29 Apr - 12:55:42 10° W 13:05:26 57° SSW 13:15:14 10° ESE daylight
29 Apr - 15:00:39 10° W 15:09:17 33° SW 15:17:45 10° SSE daylight
30 Apr - 06:28:43 10° SSE 06:32:34 13° SE 06:37:02 10° E daylight
30 Apr - 08:26:49 10° SSW 08:35:28 37° SSE 08:44:25 10° E daylight
30 Apr - 10:29:47 10° WSW 10:39:27 59° S 10:49:20 10° E daylight
30 Apr - 12:34:08 10° W 12:43:53 57° SSW 12:53:42 10° ESE daylight
30 Apr - 14:39:04 10° W 14:47:47 34° SW 14:56:22 10° SSE daylight
30 Apr - 16:48:07 10° WSW 16:50:35 11° WSW 16:52:22 10° SW daylight
